Fergus Falls, MN

8:15 PM CST on November 13, 2019 (GMT -0600)
Fergus Falls Municipal-Mickelson

Weather History for KFFM - September, 2019

Change the Weather History Date:

Thursday, September 12, 2019

  Actual Average Record
Temperature  
Mean Temperature 56 °F -  
Max Temperature 62 °F 72 °F 91 °F (1969)
Min Temperature 50 °F 49 °F 32 °F (1964)
Degree Days  
Heating Degree Days 9    
Growing Degree Days 6 (Base 50)    
Moisture  
Dew Point 53 °F    
Average Humidity 94    
Maximum Humidity 100    
Minimum Humidity 82    
Precipitation  
Precipitation 0.00 in - - ()
Sea Level Pressure  
Sea Level Pressure 29.91 in    
Wind  
Wind Speed 11 mph ()    
Max Wind Speed 22 mph    
Max Gust Speed 32 mph    
Visibility 5.0 miles    
Events Rain    
Averages and records for this station are not official NWS values.
T = Trace of Precipitation, MM = Missing Value Source: Averaged Metar Reports

Daily Weather History Graph

Daily Weather History Graph

Search for Another Location

Airport or City:

Astronomy

Sep. 12, 2019 Rise Set
Actual Time 6:58 AM CDT 7:42 PM CDT
Civil Twilight 6:28 AM CDT 8:12 PM CDT
Nautical Twilight 5:52 AM CDT 8:48 PM CDT
Astronomical Twilight 5:14 AM CDT 9:26 PM CDT
Moon 7:34 PM CDT (9/12) 5:09 AM CDT (9/12)
Length of Visible Light 13h 44m
Length of Day
12h 43m
Waxing Gibbous, 98% of the Moon is Illuminated
Sep 12
Waxing Gibbous
Sep 13
Full
Sep 21
Last Quarter
Sep 28
New
Oct 5
First Quarter

Hourly Weather History & Observations

Time (CDT) Temp. Dew Point Humidity Pressure Visibility Wind Dir Wind Speed Gust Speed Precip Events Conditions
12:15 AM 55.4 °F 51.8 °F 88% 30.06 in 10.0 mi East 11.5 mph 19.6 mph N/A   Overcast
12:16 AM 55.4 °F 51.8 °F 88% 30.06 in 10.0 mi East 12.7 mph 19.6 mph N/A   Overcast
12:35 AM 55.4 °F 50.0 °F 82% 30.07 in 10.0 mi East 12.7 mph 24.2 mph N/A   Overcast
12:36 AM 55.4 °F 50.0 °F 82% 30.07 in 10.0 mi East 12.7 mph 24.2 mph N/A   Overcast
12:59 AM 53.6 °F 48.2 °F 82% 30.10 in 10.0 mi East 15.0 mph 20.7 mph N/A   Overcast
1:16 AM 53.6 °F 48.2 °F 82% 30.12 in 10.0 mi East 9.2 mph 21.9 mph N/A   Overcast
1:35 AM 53.6 °F 48.2 °F 82% 30.13 in 10.0 mi ESE 5.8 mph - N/A Rain Light Rain
1:36 AM 53.6 °F 48.2 °F 82% 30.13 in 10.0 mi ESE 5.8 mph - N/A Rain Light Rain
1:55 AM 51.8 °F 48.2 °F 88% 30.13 in 10.0 mi East 6.9 mph - N/A   Light Drizzle
1:56 AM 51.8 °F 48.2 °F 88% 30.13 in 10.0 mi East 6.9 mph - N/A   Light Drizzle
2:15 AM 51.8 °F 48.2 °F 88% 30.12 in 10.0 mi East 8.1 mph - N/A Rain Light Rain
2:20 AM 51.8 °F 48.2 °F 88% 30.12 in 10.0 mi East 8.1 mph - N/A Rain Light Rain
2:37 AM 51.8 °F 48.2 °F 88% 30.12 in 7.0 mi East 6.9 mph - N/A Rain Light Rain
2:55 AM 50.0 °F 46.4 °F 87% 30.10 in 10.0 mi East 9.2 mph 16.1 mph N/A Rain Light Rain
3:15 AM 50.0 °F 48.2 °F 94% 30.09 in 10.0 mi East 10.4 mph 16.1 mph N/A   Overcast
3:35 AM 50.0 °F 48.2 °F 94% 30.07 in 10.0 mi East 15.0 mph 21.9 mph N/A   Overcast
3:36 AM 50.0 °F 48.2 °F 94% 30.07 in 10.0 mi East 12.7 mph 21.9 mph N/A   Overcast
3:58 AM 50.0 °F 46.4 °F 87% 30.05 in 10.0 mi East 18.4 mph 23.0 mph N/A   Overcast
4:17 AM 51.8 °F 46.4 °F 82% 30.05 in 10.0 mi East 11.5 mph 24.2 mph N/A   Overcast
4:36 AM 51.8 °F 48.2 °F 88% 30.05 in 10.0 mi East 15.0 mph 23.0 mph N/A Rain Light Rain
4:55 AM 51.8 °F 48.2 °F 88% 30.04 in 7.0 mi East 16.1 mph 26.5 mph N/A Rain Light Rain
4:56 AM 51.8 °F 48.2 °F 88% 30.04 in 7.0 mi East 15.0 mph 26.5 mph N/A Rain Light Rain
5:15 AM 50.0 °F 48.2 °F 94% 30.02 in 5.0 mi East 15.0 mph 24.2 mph N/A Rain Light Rain
5:20 AM 51.8 °F 48.2 °F 88% 30.01 in 5.0 mi East 17.3 mph 25.3 mph N/A Rain Light Rain
5:37 AM 51.8 °F 48.2 °F 88% 30.01 in 4.0 mi East 17.3 mph 24.2 mph N/A Rain Rain
5:55 AM 51.8 °F 48.2 °F 88% 30.01 in 5.0 mi East 13.8 mph 24.2 mph N/A Rain Light Rain
6:15 AM 51.8 °F 48.2 °F 88% 30.01 in 5.0 mi East 18.4 mph 25.3 mph N/A Rain Light Rain
6:16 AM 51.8 °F 48.2 °F 88% 30.01 in 5.0 mi East 16.1 mph 25.3 mph N/A Rain Light Rain
6:35 AM 51.8 °F 48.2 °F 88% 30.01 in 7.0 mi East 10.4 mph 24.2 mph N/A Rain Light Rain
6:36 AM 51.8 °F 48.2 °F 88% 30.01 in 7.0 mi East 12.7 mph 24.2 mph N/A Rain Light Rain
6:58 AM 51.8 °F 48.2 °F 88% 30.00 in 10.0 mi East 15.0 mph 20.7 mph N/A Rain Light Rain
7:17 AM 51.8 °F 48.2 °F 88% 29.97 in 7.0 mi East 13.8 mph 24.2 mph N/A Rain Light Rain
7:36 AM 51.8 °F 48.2 °F 88% 29.96 in 10.0 mi East 17.3 mph 27.6 mph N/A Rain Light Rain
7:55 AM 51.8 °F 48.2 °F 88% 29.93 in 10.0 mi East 19.6 mph 27.6 mph N/A   Mostly Cloudy
7:56 AM 51.8 °F 48.2 °F 88% 29.93 in 10.0 mi East 21.9 mph 29.9 mph N/A   Mostly Cloudy
8:15 AM 51.8 °F 48.2 °F 88% 29.93 in 10.0 mi East 17.3 mph 27.6 mph N/A   Overcast
8:37 AM 51.8 °F 50.0 °F 94% 29.90 in 5.0 mi East 17.3 mph 26.5 mph N/A   Overcast
8:56 AM 51.8 °F 50.0 °F 94% 29.88 in 5.0 mi East 17.3 mph 32.2 mph N/A Rain Light Rain
9:15 AM 51.8 °F 50.0 °F 94% 29.90 in 1.8 mi East 15.0 mph 25.3 mph N/A Rain Light Rain
9:16 AM 51.8 °F 50.0 °F 94% 29.90 in 1.8 mi East 13.8 mph 23.0 mph N/A Rain Light Rain
9:35 AM 51.8 °F 51.8 °F 100% 29.90 in 1.5 mi East 13.8 mph 21.9 mph N/A Rain Light Rain
9:36 AM 51.8 °F 51.8 °F 100% 29.90 in 1.5 mi East 12.7 mph 21.9 mph N/A Rain Light Rain
9:58 AM 51.8 °F 51.8 °F 100% 29.90 in 2.0 mi East 11.5 mph 20.7 mph N/A   Overcast
10:16 AM 53.6 °F 51.8 °F 94% 29.89 in 2.0 mi East 10.4 mph 24.2 mph N/A   Overcast
10:35 AM 53.6 °F 51.8 °F 94% 29.89 in 2.0 mi East 9.2 mph 18.4 mph N/A   Overcast
10:36 AM 53.6 °F 51.8 °F 94% 29.88 in 2.0 mi East 11.5 mph 20.7 mph N/A   Overcast
10:55 AM 53.6 °F 51.8 °F 94% 29.89 in 1.8 mi East 13.8 mph 18.4 mph N/A   Overcast
11:15 AM 53.6 °F 51.8 °F 94% 29.89 in 1.8 mi East 12.7 mph 19.6 mph N/A   Overcast
11:19 AM 53.6 °F 51.8 °F 94% 29.88 in 1.8 mi East 9.2 mph 19.6 mph N/A   Overcast
11:37 AM 53.6 °F 51.8 °F 94% 29.88 in 1.5 mi East 11.5 mph 17.3 mph N/A   Overcast
11:55 AM 53.6 °F 53.6 °F 100% 29.88 in 1.8 mi East 6.9 mph 17.3 mph N/A   Overcast
12:15 PM 55.4 °F 53.6 °F 94% 29.87 in 1.8 mi East 8.1 mph - N/A   Overcast
12:16 PM 55.4 °F 53.6 °F 94% 29.87 in 1.5 mi East 6.9 mph - N/A   Overcast
12:35 PM 55.4 °F 53.6 °F 94% 29.87 in 1.5 mi East 6.9 mph - N/A   Overcast
12:36 PM 55.4 °F 53.6 °F 94% 29.87 in 1.5 mi ESE 5.8 mph - N/A   Overcast
12:59 PM 55.4 °F 55.4 °F 100% 29.87 in 1.0 mi East 5.8 mph - N/A   Overcast
1:17 PM 57.2 °F 55.4 °F 94% 29.86 in 1.5 mi East 5.8 mph - N/A   Overcast
1:36 PM 57.2 °F 57.2 °F 100% 29.85 in 1.8 mi East 5.8 mph - N/A   Overcast
1:55 PM 57.2 °F 57.2 °F 100% 29.84 in 1.2 mi ESE 8.1 mph - N/A   Overcast
1:56 PM 57.2 °F 57.2 °F 100% 29.84 in 1.2 mi ESE 6.9 mph - N/A   Overcast
2:15 PM 59.0 °F 57.2 °F 94% 29.83 in 1.0 mi ESE 6.9 mph - N/A   Overcast
2:20 PM 59.0 °F 57.2 °F 94% 29.83 in 1.2 mi ESE 6.9 mph - N/A   Overcast
2:37 PM 60.8 °F 59.0 °F 94% 29.82 in 1.2 mi ESE 6.9 mph - N/A   Overcast
2:55 PM 60.8 °F 60.8 °F 100% 29.82 in 1.2 mi ESE 9.2 mph - N/A   Overcast
3:15 PM 60.8 °F 60.8 °F 100% 29.81 in 1.0 mi SE 8.1 mph - N/A   Overcast
3:16 PM 60.8 °F 60.8 °F 100% 29.81 in 1.0 mi SE 8.1 mph - N/A   Overcast
3:35 PM 62.6 °F 62.6 °F 100% 29.79 in 1.0 mi SE 9.2 mph - N/A   Overcast
3:58 PM 62.6 °F 62.6 °F 100% 29.78 in 1.0 mi SE 10.4 mph - N/A   Overcast
4:16 PM 62.6 °F 62.6 °F 100% 29.78 in 1.8 mi SE 8.1 mph - N/A   Overcast
4:35 PM 62.6 °F 60.8 °F 94% 29.76 in 2.5 mi ESE 6.9 mph - N/A   Overcast
4:55 PM 62.6 °F 60.8 °F 94% 29.77 in 1.0 mi SE 5.8 mph - N/A   Overcast
4:56 PM 62.6 °F 62.6 °F 100% 29.77 in 1.0 mi SE 6.9 mph - N/A   Overcast
5:15 PM 62.6 °F 62.6 °F 100% 29.77 in 1.5 mi South 9.2 mph - N/A   Overcast
5:19 PM 62.6 °F 62.6 °F 100% 29.77 in 1.2 mi South 9.2 mph - N/A   Overcast
5:37 PM 62.6 °F 62.6 °F 100% 29.78 in 0.8 mi WSW 4.6 mph - N/A   Light Drizzle
5:56 PM 60.8 °F 60.8 °F 100% 29.79 in 0.8 mi West 8.1 mph - N/A   Light Drizzle
6:15 PM 60.8 °F 60.8 °F 100% 29.79 in 1.5 mi West 9.2 mph - N/A   Overcast
6:16 PM 60.8 °F 60.8 °F 100% 29.79 in 1.5 mi West 10.4 mph - N/A   Overcast
6:35 PM 59.0 °F 59.0 °F 100% 29.80 in 1.2 mi WNW 6.9 mph - N/A   Overcast
6:58 PM 59.0 °F 59.0 °F 100% 29.80 in 1.5 mi West 8.1 mph - N/A   Overcast
7:16 PM 57.2 °F 57.2 °F 100% 29.81 in 1.0 mi West 8.1 mph - N/A   Overcast
7:36 PM 57.2 °F 57.2 °F 100% 29.80 in 7.0 mi West 9.2 mph - N/A   Overcast
7:55 PM 57.2 °F 57.2 °F 100% 29.80 in 1.2 mi West 11.5 mph - N/A   Overcast
8:15 PM 57.2 °F 57.2 °F 100% 29.80 in 2.5 mi West 9.2 mph - N/A   Overcast
8:19 PM 57.2 °F 57.2 °F 100% 29.80 in 2.5 mi West 9.2 mph - N/A   Overcast
8:37 PM 57.2 °F 57.2 °F 100% 29.80 in 3.0 mi West 10.4 mph - N/A   Overcast
8:56 PM 55.4 °F 55.4 °F 100% 29.81 in 10.0 mi West 10.4 mph - N/A   Overcast
9:15 PM 55.4 °F 55.4 °F 100% 29.81 in 2.5 mi WNW 13.8 mph - N/A   Overcast
9:16 PM 55.4 °F 55.4 °F 100% 29.81 in 2.5 mi WNW 15.0 mph - N/A   Overcast
9:35 PM 55.4 °F 55.4 °F 100% 29.82 in 10.0 mi West 10.4 mph - N/A   Overcast
9:36 PM 55.4 °F 55.4 °F 100% 29.81 in 10.0 mi West 9.2 mph - N/A   Overcast
9:59 PM 55.4 °F 55.4 °F 100% 29.81 in 10.0 mi WNW 11.5 mph - N/A   Overcast
10:16 PM 55.4 °F 55.4 °F 100% 29.81 in 10.0 mi WNW 12.7 mph - N/A   Overcast
10:36 PM 55.4 °F 55.4 °F 100% 29.82 in 10.0 mi WNW 11.5 mph - N/A   Overcast
10:55 PM 55.4 °F 55.4 °F 100% 29.82 in 1.2 mi WNW 10.4 mph - N/A   Overcast
10:56 PM 55.4 °F 55.4 °F 100% 29.82 in 1.5 mi WNW 10.4 mph - N/A   Overcast
11:15 PM 53.6 °F 53.6 °F 100% 29.81 in 5.0 mi WNW 11.5 mph - N/A   Overcast
11:37 PM 53.6 °F 53.6 °F 100% 29.81 in 10.0 mi WNW 10.4 mph - N/A   Overcast
11:56 PM 53.6 °F 53.6 °F 100% 29.81 in 10.0 mi WNW 9.2 mph - N/A   Overcast